Time,TemperatureF,DewpointF,PressureIn,WindDirection,WindDirectionDegrees,WindSpeedMPH,WindSpeedGustMPH,Humidity,HourlyPrecipIn,Conditions,Clouds,dailyrainin,SolarRadiationWatts/m^2,SoftwareType,DateUTC
2013-07-21 00:01:00,76.1,73.6,30.02,SSW,211,5.0,6.0,92,0.00,,---,0.00,0.00,VWS V14.01,2013-07-21 04:01:00,
2013-07-21 00:02:00,76.1,73.6,30.02,SSW,213,2.0,5.0,92,0.00,,---,0.00,0.00,VWS V14.01,2013-07-21 04:02:00,
2013-07-21 00:03:00,76.1,73.6,30.02,SSW,213,0.0,5.0,92,0.00,,---,0.00,0.00,VWS V14.01,2013-07-21 04:03:00,
2013-07-21 00:04:00,76.1,73.6,30.02,SSW,211,5.0,5.0,92,0.00,,---,0.00,0.00,VWS V14.01,2013-07-21 04:04:00,
2013-07-21 00:10:00,76.0,73.5,30.02,SW,222,3.0,6.0,92,0.00,,---,0.00,0.00,VWS V14.01,2013-07-21 04:10:00,
2013-07-21 00:15:00,75.9,73.4,30.02,SW,221,0.0,6.0,92,0.00,,---,0.00,0.00,VWS V14.01,2013-07-21 04:15:00,
2013-07-21 00:20:00,75.9,73.4,30.02,SW,221,0.0,4.0,92,0.00,,---,0.00,0.00,VWS V14.01,2013-07-21 04:20:00,
2013-07-21 00:25:00,75.9,73.4,30.02,SW,218,1.0,6.0,92,0.00,,---,0.00,0.00,VWS V14.01,2013-07-21 04:25:00,
2013-07-21 00:30:00,75.8,73.3,30.02,SW,220,4.0,5.0,92,0.00,,---,0.00,0.00,VWS V14.01,2013-07-21 04:30:00,
2013-07-21 00:35:00,75.8,73.3,30.02,SW,221,4.0,4.0,92,0.00,,---,0.00,0.00,VWS V14.01,2013-07-21 04:35:00,
2013-07-21 00:40:00,75.8,73.3,30.02,SW,219,4.0,5.0,92,0.00,,---,0.00,0.00,VWS V14.01,2013-07-21 04:40:00,
2013-07-21 00:45:00,75.7,73.5,30.02,SW,218,5.0,6.0,93,0.00,,---,0.00,0.00,VWS V14.01,2013-07-21 04:45:00,
2013-07-21 00:50:00,75.7,73.5,30.02,SW,231,0.0,0.0,93,0.00,,---,0.00,0.00,VWS V14.01,2013-07-21 04:50:00,
2013-07-21 00:55:00,75.7,73.5,30.02,SW,226,0.0,0.0,93,0.00,,---,0.00,0.00,VWS V14.01,2013-07-21 04:55:00,
2013-07-21 01:01:00,75.7,73.5,30.02,SW,218,0.0,1.0,93,0.00,,---,0.00,0.00,VWS V14.01,2013-07-21 05:01:00,
2013-07-21 01:06:00,75.7,73.5,30.02,SW,220,3.0,4.0,93,0.00,,---,0.00,0.00,VWS V14.01,2013-07-21 05:06:00,
2013-07-21 01:11:00,75.6,73.4,30.02,SW,228,4.0,7.0,93,0.00,,---,0.00,0.00,VWS V14.01,2013-07-21 05:11:00,
2013-07-21 01:16:00,75.6,73.4,30.02,SW,218,0.0,2.0,93,0.00,,---,0.00,0.00,VWS V14.01,2013-07-21 05:16:00,
2013-07-21 01:21:00,75.6,73.4,30.02,SW,217,4.0,5.0,93,0.00,,---,0.00,0.00,VWS V14.01,2013-07-21 05:21:00,
2013-07-21 01:27:00,75.6,73.4,30.02,SW,219,2.0,6.0,93,0.00,,---,0.00,0.00,VWS V14.01,2013-07-21 05:27:00,
2013-07-21 01:32:00,75.6,73.4,30.01,SW,221,1.0,5.0,93,0.00,,---,0.00,0.00,VWS V14.01,2013-07-21 05:32:00,
2013-07-21 01:37:00,75.6,73.8,30.02,SW,223,0.0,1.0,94,0.00,,---,0.00,0.00,VWS V14.01,2013-07-21 05:37:00,
2013-07-21 01:42:00,75.6,73.8,30.01,SW,217,4.0,6.0,94,0.00,,---,0.00,0.00,VWS V14.01,2013-07-21 05:42:00,
2013-07-21 01:47:00,75.6,73.8,30.01,SW,217,3.0,5.0,94,0.00,,---,0.00,0.00,VWS V14.01,2013-07-21 05:47:00,
2013-07-21 01:52:00,75.6,73.8,30.01,SW,215,6.0,7.0,94,0.00,,---,0.00,0.00,VWS V14.01,2013-07-21 05:52:00,
2013-07-21 01:57:00,75.6,73.8,30.01,SSW,213,0.0,4.0,94,0.00,,---,0.00,0.00,VWS V14.01,2013-07-21 05:57:00,
2013-07-21 02:02:00,75.6,73.8,30.01,SSW,213,4.0,8.0,94,0.00,,---,0.00,0.00,VWS V14.01,2013-07-21 06:02:00,
2013-07-21 02:07:00,75.5,73.7,30.01,SW,214,0.0,6.0,94,0.01,,---,0.01,0.00,VWS V14.01,2013-07-21 06:07:00,
2013-07-21 02:13:00,75.5,73.7,30.01,SW,216,4.0,6.0,94,0.03,,---,0.03,0.00,VWS V14.01,2013-07-21 06:13:00,
2013-07-21 02:18:00,75.4,73.6,30.01,SW,219,0.0,4.0,94,0.08,,---,0.08,0.00,VWS V14.01,2013-07-21 06:18:00,
2013-07-21 02:23:00,75.3,73.5,30.00,SW,227,0.0,6.0,94,0.12,,---,0.12,0.00,VWS V14.01,2013-07-21 06:23:00,
2013-07-21 02:28:00,75.3,73.5,30.00,SW,227,0.0,1.0,94,0.14,,---,0.14,0.00,VWS V14.01,2013-07-21 06:28:00,
2013-07-21 02:34:00,75.3,73.5,30.00,SW,219,4.0,7.0,94,0.18,,---,0.18,0.00,VWS V14.01,2013-07-21 06:34:00,
2013-07-21 02:39:00,75.2,73.7,30.00,SW,220,4.0,8.0,95,0.26,,---,0.26,0.00,VWS V14.01,2013-07-21 06:39:00,
2013-07-21 02:44:00,75.1,73.6,30.00,SSW,211,4.0,8.0,95,0.31,,---,0.31,0.00,VWS V14.01,2013-07-21 06:44:00,
2013-07-21 02:49:00,75.0,73.5,30.00,SW,215,4.0,5.0,95,0.32,,---,0.32,0.00,VWS V14.01,2013-07-21 06:49:00,
2013-07-21 02:54:00,75.0,73.5,30.00,SW,215,0.0,5.0,95,0.32,,---,0.32,0.00,VWS V14.01,2013-07-21 06:54:00,
2013-07-21 02:59:00,75.0,73.5,30.00,SW,215,0.0,0.0,95,0.32,,---,0.32,0.00,VWS V14.01,2013-07-21 06:59:00,
2013-07-21 03:04:00,74.9,73.4,30.00,SW,215,1.0,4.0,95,0.32,,---,0.32,0.00,VWS V14.01,2013-07-21 07:04:00,
2013-07-21 03:10:00,74.9,73.4,30.00,SW,218,4.0,5.0,95,0.32,,---,0.32,0.00,VWS V14.01,2013-07-21 07:10:00,
2013-07-21 03:15:00,74.9,73.4,30.00,SW,219,0.0,4.0,95,0.31,,---,0.32,0.00,VWS V14.01,2013-07-21 07:15:00,
2013-07-21 03:20:00,74.9,73.7,30.00,SW,223,2.0,6.0,96,0.26,,---,0.32,0.00,VWS V14.01,2013-07-21 07:20:00,
2013-07-21 03:25:00,74.9,73.4,30.00,SW,223,3.0,4.0,95,0.22,,---,0.32,0.00,VWS V14.01,2013-07-21 07:25:00,
2013-07-21 03:30:00,74.9,73.4,30.00,SW,221,2.0,3.0,95,0.17,,---,0.32,0.00,VWS V14.01,2013-07-21 07:30:00,
2013-07-21 03:35:00,74.9,73.7,29.99,SW,222,0.0,0.0,96,0.12,,---,0.32,0.00,VWS V14.01,2013-07-21 07:35:00,
2013-07-21 03:40:00,74.9,73.7,29.99,SW,221,4.0,4.0,96,0.04,,---,0.32,0.00,VWS V14.01,2013-07-21 07:40:00,
2013-07-21 03:46:00,74.9,73.7,29.99,SW,222,0.0,0.0,96,0.00,,---,0.32,0.00,VWS V14.01,2013-07-21 07:46:00,
2013-07-21 03:51:00,74.9,73.7,29.99,SW,219,0.0,0.0,96,0.00,,---,0.32,0.00,VWS V14.01,2013-07-21 07:51:00,
2013-07-21 03:56:00,74.9,73.7,29.99,SW,219,3.0,4.0,96,0.00,,---,0.32,0.00,VWS V14.01,2013-07-21 07:56:00,
2013-07-21 04:01:00,74.9,73.7,29.99,SW,216,0.0,5.0,96,0.00,,---,0.32,0.00,VWS V14.01,2013-07-21 08:01:00,
2013-07-21 04:06:00,74.9,73.7,29.99,SW,216,0.0,1.0,96,0.00,,---,0.32,0.00,VWS V14.01,2013-07-21 08:06:00,
2013-07-21 04:11:00,74.8,73.6,29.99,SSW,213,2.0,6.0,96,0.00,,---,0.32,0.00,VWS V14.01,2013-07-21 08:11:00,
2013-07-21 04:16:00,74.8,73.6,29.99,SW,214,0.0,1.0,96,0.00,,---,0.32,0.00,VWS V14.01,2013-07-21 08:16:00,
2013-07-21 04:21:00,74.8,73.6,29.99,SW,215,0.0,3.0,96,0.00,,---,0.32,0.00,VWS V14.01,2013-07-21 08:21:00,
2013-07-21 04:27:00,74.8,73.6,29.99,SW,235,4.0,10.0,96,0.00,,---,0.32,0.00,VWS V14.01,2013-07-21 08:27:00,
2013-07-21 04:32:00,74.8,73.6,29.99,SSW,211,4.0,5.0,96,0.00,,---,0.32,0.00,VWS V14.01,2013-07-21 08:32:00,
2013-07-21 04:37:00,74.7,73.5,29.99,SSW,213,0.0,4.0,96,0.00,,---,0.32,0.00,VWS V14.01,2013-07-21 08:37:00,
2013-07-21 04:42:00,74.7,73.5,29.99,SSW,212,0.0,5.0,96,0.00,,---,0.32,0.00,VWS V14.01,2013-07-21 08:42:00,
2013-07-21 04:47:00,74.7,73.5,29.99,SSW,211,2.0,5.0,96,0.00,,---,0.32,0.00,VWS V14.01,2013-07-21 08:47:00,
2013-07-21 04:52:00,74.7,73.5,29.99,SSW,212,3.0,4.0,96,0.00,,---,0.32,0.00,VWS V14.01,2013-07-21 08:52:00,
2013-07-21 04:57:00,74.7,73.5,29.99,SSW,213,4.0,5.0,96,0.00,,---,0.32,0.00,VWS V14.01,2013-07-21 08:57:00,
2013-07-21 05:02:00,74.7,73.5,29.99,SW,215,0.0,3.0,96,0.00,,---,0.32,0.00,VWS V14.01,2013-07-21 09:02:00,
2013-07-21 05:07:00,74.7,73.5,29.99,SW,217,0.0,1.0,96,0.00,,---,0.32,0.00,VWS V14.01,2013-07-21 09:07:00,
2013-07-21 05:13:00,74.7,73.5,29.98,SW,218,0.0,4.0,96,0.00,,---,0.32,0.00,VWS V14.01,2013-07-21 09:13:00,
2013-07-21 05:18:00,74.7,73.5,29.98,SW,221,3.0,5.0,96,0.00,,---,0.32,0.00,VWS V14.01,2013-07-21 09:18:00,
2013-07-21 05:23:00,74.7,73.5,29.98,SW,221,3.0,5.0,96,0.00,,---,0.32,0.00,VWS V14.01,2013-07-21 09:23:00,
2013-07-21 05:28:00,74.7,73.5,29.98,SW,222,2.0,5.0,96,0.00,,---,0.32,0.00,VWS V14.01,2013-07-21 09:28:00,
2013-07-21 05:33:00,74.7,73.5,29.98,SW,219,4.0,6.0,96,0.00,,---,0.32,0.00,VWS V14.01,2013-07-21 09:33:00,
2013-07-21 05:38:00,74.7,73.5,29.98,SW,219,2.0,6.0,96,0.00,,---,0.32,0.00,VWS V14.01,2013-07-21 09:38:00,
2013-07-21 05:43:00,74.7,73.5,29.98,SW,220,0.0,0.0,96,0.00,,---,0.32,0.00,VWS V14.01,2013-07-21 09:43:00,
2013-07-21 05:48:00,74.7,73.5,29.98,SW,228,0.0,5.0,96,0.00,,---,0.32,0.00,VWS V14.01,2013-07-21 09:48:00,
2013-07-21 05:53:00,74.6,73.4,29.98,SW,232,3.0,6.0,96,0.00,,---,0.32,0.00,VWS V14.01,2013-07-21 09:53:00,
2013-07-21 05:59:00,74.6,73.4,29.98,SW,234,4.0,6.0,96,0.00,,---,0.32,0.00,VWS V14.01,2013-07-21 09:59:00,
2013-07-21 06:04:00,74.6,73.4,29.98,SW,234,3.0,6.0,96,0.00,,---,0.32,0.00,VWS V14.01,2013-07-21 10:04:00,
2013-07-21 06:09:00,74.6,73.4,29.97,SW,228,0.0,4.0,96,0.00,,---,0.32,0.00,VWS V14.01,2013-07-21 10:09:00,
2013-07-21 06:14:00,74.6,73.4,29.98,SW,229,0.0,5.0,96,0.00,,---,0.32,0.00,VWS V14.01,2013-07-21 10:14:00,
2013-07-21 06:19:00,74.6,73.4,29.98,SW,229,0.0,0.0,96,0.00,,---,0.32,0.00,VWS V14.01,2013-07-21 10:19:00,
2013-07-21 06:24:00,74.6,73.4,29.98,SW,229,0.0,1.0,96,0.00,,---,0.32,0.00,VWS V14.01,2013-07-21 10:24:00,
2013-07-21 06:29:00,74.5,73.3,29.98,SW,229,1.0,3.0,96,0.00,,---,0.32,0.00,VWS V14.01,2013-07-21 10:29:00,
2013-07-21 06:35:00,74.5,73.3,29.98,SW,229,0.0,0.0,96,0.00,,---,0.32,0.00,VWS V14.01,2013-07-21 10:35:00,
2013-07-21 06:40:00,74.6,73.4,29.99,SW,229,0.0,3.0,96,0.00,,---,0.32,5.00,VWS V14.01,2013-07-21 10:40:00,
2013-07-21 06:45:00,74.6,73.4,29.99,SW,229,0.0,1.0,96,0.00,,---,0.32,9.00,VWS V14.01,2013-07-21 10:45:00,
2013-07-21 06:50:00,74.6,73.4,29.99,SW,229,1.0,3.0,96,0.00,,---,0.32,11.00,VWS V14.01,2013-07-21 10:50:00,
2013-07-21 06:55:00,74.6,73.4,29.99,SW,227,0.0,5.0,96,0.00,,---,0.32,19.00,VWS V14.01,2013-07-21 10:55:00,
2013-07-21 07:00:00,74.6,73.4,29.99,SW,227,0.0,0.0,96,0.00,,---,0.32,25.00,VWS V14.01,2013-07-21 11:00:00,
2013-07-21 07:05:00,74.6,73.4,29.99,SW,227,3.0,3.0,96,0.00,,---,0.32,26.00,VWS V14.01,2013-07-21 11:05:00,
2013-07-21 07:10:00,74.7,73.5,29.99,SW,227,1.0,3.0,96,0.00,,---,0.32,35.00,VWS V14.01,2013-07-21 11:10:00,
2013-07-21 07:16:00,74.7,73.5,29.99,SW,227,0.0,2.0,96,0.00,,---,0.32,33.00,VWS V14.01,2013-07-21 11:16:00,
2013-07-21 07:21:00,74.7,73.5,29.99,SW,223,2.0,3.0,96,0.00,,---,0.32,35.00,VWS V14.01,2013-07-21 11:21:00,
2013-07-21 07:26:00,74.7,73.5,30.00,SSW,211,3.0,5.0,96,0.00,,---,0.32,51.00,VWS V14.01,2013-07-21 11:26:00,
2013-07-21 07:31:00,74.8,73.6,30.00,SSW,213,2.0,5.0,96,0.00,,---,0.32,49.00,VWS V14.01,2013-07-21 11:31:00,
2013-07-21 07:36:00,74.8,73.6,30.00,SW,221,2.0,3.0,96,0.00,,---,0.32,74.00,VWS V14.01,2013-07-21 11:36:00,
2013-07-21 07:41:00,74.8,73.6,30.00,SW,221,0.0,0.0,96,0.00,,---,0.32,88.00,VWS V14.01,2013-07-21 11:41:00,
2013-07-21 07:46:00,74.9,73.7,30.00,SW,221,1.0,4.0,96,0.00,,---,0.32,49.00,VWS V14.01,2013-07-21 11:46:00,
2013-07-21 07:52:00,74.9,73.7,30.01,SW,221,0.0,4.0,96,0.00,,---,0.32,74.00,VWS V14.01,2013-07-21 11:52:00,
2013-07-21 07:57:00,74.9,73.7,30.01,WSW,239,2.0,5.0,96,0.00,,---,0.32,69.00,VWS V14.01,2013-07-21 11:57:00,
2013-07-21 08:02:00,75.0,73.8,30.01,SW,228,3.0,6.0,96,0.00,,---,0.32,76.00,VWS V14.01,2013-07-21 12:02:00,
2013-07-21 08:07:00,75.0,73.8,30.01,SW,233,5.0,6.0,96,0.00,,---,0.32,102.00,VWS V14.01,2013-07-21 12:07:00,
2013-07-21 08:12:00,75.1,73.9,30.01,SW,234,0.0,6.0,96,0.00,,---,0.32,109.00,VWS V14.01,2013-07-21 12:12:00,
2013-07-21 08:17:00,75.1,73.9,30.01,WSW,253,5.0,9.0,96,0.00,,---,0.32,102.00,VWS V14.01,2013-07-21 12:17:00,
2013-07-21 08:22:00,75.2,74.0,30.01,WSW,252,3.0,4.0,96,0.00,,---,0.32,102.00,VWS V14.01,2013-07-21 12:22:00,
2013-07-21 08:28:00,75.3,74.1,30.02,West,259,0.0,7.0,96,0.00,,---,0.32,93.00,VWS V14.01,2013-07-21 12:28:00,
2013-07-21 08:33:00,75.3,73.8,30.01,WSW,254,3.0,5.0,95,0.00,,---,0.32,123.00,VWS V14.01,2013-07-21 12:33:00,
2013-07-21 08:38:00,75.5,74.0,30.01,WSW,252,0.0,4.0,95,0.00,,---,0.32,174.00,VWS V14.01,2013-07-21 12:38:00,
2013-07-21 08:43:00,75.6,74.1,30.01,WSW,253,3.0,5.0,95,0.00,,---,0.32,135.00,VWS V14.01,2013-07-21 12:43:00,
2013-07-21 08:48:00,75.7,74.2,30.02,WSW,253,0.0,0.0,95,0.00,,---,0.32,155.00,VWS V14.01,2013-07-21 12:48:00,
2013-07-21 08:53:00,75.9,74.4,30.02,WSW,244,0.0,4.0,95,0.00,,---,0.32,195.00,VWS V14.01,2013-07-21 12:53:00,
2013-07-21 08:58:00,76.1,74.6,30.02,WSW,243,0.0,5.0,95,0.00,,---,0.32,246.00,VWS V14.01,2013-07-21 12:58:00,
2013-07-21 09:04:00,76.3,74.8,30.02,WSW,245,0.0,7.0,95,0.00,,---,0.32,193.00,VWS V14.01,2013-07-21 13:04:00,
2013-07-21 09:09:00,76.4,74.9,30.02,SW,227,5.0,8.0,95,0.00,,---,0.32,218.00,VWS V14.01,2013-07-21 13:09:00,
2013-07-21 09:14:00,76.5,74.7,30.03,WSW,249,4.0,9.0,94,0.00,,---,0.32,199.00,VWS V14.01,2013-07-21 13:14:00,
2013-07-21 09:19:00,76.6,74.8,30.03,WSW,250,0.0,7.0,94,0.00,,---,0.32,176.00,VWS V14.01,2013-07-21 13:19:00,
2013-07-21 09:24:00,76.7,74.5,30.03,SSW,213,3.0,7.0,93,0.00,,---,0.32,178.00,VWS V14.01,2013-07-21 13:24:00,
2013-07-21 09:29:00,76.8,74.6,30.02,WSW,247,5.0,7.0,93,0.00,,---,0.32,156.00,VWS V14.01,2013-07-21 13:29:00,
2013-07-21 09:34:00,76.9,74.7,30.02,WSW,246,2.0,9.0,93,0.00,,---,0.32,178.00,VWS V14.01,2013-07-21 13:34:00,
2013-07-21 09:39:00,77.1,74.9,30.03,WSW,245,0.0,5.0,93,0.00,,---,0.32,308.00,VWS V14.01,2013-07-21 13:39:00,
2013-07-21 09:44:00,77.2,75.0,30.03,WSW,248,7.0,10.0,93,0.00,,---,0.32,315.00,VWS V14.01,2013-07-21 13:44:00,
2013-07-21 09:50:00,77.4,75.2,30.03,WSW,248,8.0,11.0,93,0.00,,---,0.32,388.00,VWS V14.01,2013-07-21 13:50:00,
2013-07-21 09:55:00,77.7,75.2,30.03,SW,221,3.0,9.0,92,0.00,,---,0.32,355.00,VWS V14.01,2013-07-21 13:55:00,
2013-07-21 10:00:00,77.9,75.1,30.03,SW,232,6.0,12.0,91,0.00,,---,0.32,223.00,VWS V14.01,2013-07-21 14:00:00,
2013-07-21 10:05:00,77.9,74.7,30.03,SW,221,4.0,8.0,90,0.00,,---,0.32,163.00,VWS V14.01,2013-07-21 14:05:00,
2013-07-21 10:10:00,77.9,74.7,30.03,SW,214,5.0,7.0,90,0.00,,---,0.32,141.00,VWS V14.01,2013-07-21 14:10:00,
2013-07-21 10:15:00,77.9,75.1,30.03,SW,224,0.0,7.0,91,0.00,,---,0.32,148.00,VWS V14.01,2013-07-21 14:15:00,
2013-07-21 10:20:00,78.0,75.2,30.03,SW,224,0.0,0.0,91,0.00,,---,0.32,193.00,VWS V14.01,2013-07-21 14:20:00,
2013-07-21 10:26:00,78.1,75.3,30.03,SW,234,0.0,0.0,91,0.00,,---,0.32,229.00,VWS V14.01,2013-07-21 14:26:00,
2013-07-21 10:31:00,78.2,75.4,30.03,SW,228,2.0,4.0,91,0.00,,---,0.32,251.00,VWS V14.01,2013-07-21 14:31:00,
2013-07-21 10:36:00,78.2,75.0,30.03,SW,219,0.0,0.0,90,0.00,,---,0.32,248.00,VWS V14.01,2013-07-21 14:36:00,
2013-07-21 10:41:00,78.4,75.2,30.03,SW,223,0.0,0.0,90,0.00,,---,0.32,183.00,VWS V14.01,2013-07-21 14:41:00,
2013-07-21 10:46:00,78.4,75.2,30.04,SW,225,5.0,6.0,90,0.00,,---,0.32,149.00,VWS V14.01,2013-07-21 14:46:00,
2013-07-21 10:51:00,78.4,74.9,30.03,WSW,256,2.0,4.0,89,0.00,,---,0.32,213.00,VWS V14.01,2013-07-21 14:51:00,
2013-07-21 10:56:00,78.4,74.9,30.04,WSW,249,3.0,5.0,89,0.00,,---,0.32,251.00,VWS V14.01,2013-07-21 14:56:00,
2013-07-21 11:01:00,78.5,75.3,30.04,WSW,242,4.0,8.0,90,0.00,,---,0.32,248.00,VWS V14.01,2013-07-21 15:01:00,
2013-07-21 11:07:00,78.6,75.4,30.04,SW,219,3.0,6.0,90,0.00,,---,0.32,257.00,VWS V14.01,2013-07-21 15:07:00,
2013-07-21 11:12:00,78.7,75.5,30.04,SW,220,0.0,0.0,90,0.00,,---,0.32,276.00,VWS V14.01,2013-07-21 15:12:00,
2013-07-21 11:17:00,78.8,75.6,30.04,SW,217,7.0,7.0,90,0.00,,---,0.32,174.00,VWS V14.01,2013-07-21 15:17:00,
2013-07-21 11:22:00,78.8,75.3,30.04,SW,216,4.0,7.0,89,0.00,,---,0.32,193.00,VWS V14.01,2013-07-21 15:22:00,
2013-07-21 11:27:00,78.7,74.8,30.04,SW,236,0.0,6.0,88,0.00,,---,0.32,199.00,VWS V14.01,2013-07-21 15:27:00,
2013-07-21 11:32:00,78.7,75.2,30.05,SW,227,5.0,6.0,89,0.00,,---,0.32,236.00,VWS V14.01,2013-07-21 15:32:00,
2013-07-21 11:37:00,78.8,75.3,30.04,SSW,212,4.0,8.0,89,0.00,,---,0.32,318.00,VWS V14.01,2013-07-21 15:37:00,
2013-07-21 11:42:00,78.8,75.3,30.04,SW,216,0.0,7.0,89,0.00,,---,0.32,323.00,VWS V14.01,2013-07-21 15:42:00,
2013-07-21 11:48:00,79.0,75.5,30.04,SW,215,4.0,6.0,89,0.00,,---,0.32,339.00,VWS V14.01,2013-07-21 15:48:00,
2013-07-21 11:53:00,79.1,75.6,30.04,SW,234,0.0,6.0,89,0.00,,---,0.32,315.00,VWS V14.01,2013-07-21 15:53:00,
2013-07-21 11:58:00,79.3,75.8,30.04,SW,225,2.0,7.0,89,0.00,,---,0.32,313.00,VWS V14.01,2013-07-21 15:58:00,
2013-07-21 12:03:00,79.4,75.5,30.04,SW,221,3.0,8.0,88,0.00,,---,0.32,396.00,VWS V14.01,2013-07-21 16:03:00,
2013-07-21 12:08:00,79.7,76.2,30.04,SW,221,4.0,8.0,89,0.00,,---,0.32,455.00,VWS V14.01,2013-07-21 16:08:00,
2013-07-21 12:13:00,79.9,75.7,30.04,SW,233,7.0,8.0,87,0.00,,---,0.32,606.00,VWS V14.01,2013-07-21 16:13:00,
2013-07-21 12:18:00,80.1,76.2,30.04,SW,224,3.0,7.0,88,0.00,,---,0.32,571.00,VWS V14.01,2013-07-21 16:18:00,
2013-07-21 12:24:00,80.5,76.3,30.03,WSW,244,8.0,11.0,87,0.00,,---,0.32,394.00,VWS V14.01,2013-07-21 16:24:00,
2013-07-21 12:29:00,80.6,76.0,30.03,SSW,209,7.0,9.0,86,0.00,,---,0.32,554.00,VWS V14.01,2013-07-21 16:29:00,
2013-07-21 12:34:00,80.8,75.9,30.03,SSW,210,2.0,9.0,85,0.00,,---,0.32,719.00,VWS V14.01,2013-07-21 16:34:00,
2013-07-21 12:39:00,81.3,76.4,30.02,SW,215,7.0,9.0,85,0.00,,---,0.32,589.00,VWS V14.01,2013-07-21 16:39:00,
2013-07-21 12:44:00,81.8,76.8,30.02,SSW,211,3.0,8.0,85,0.00,,---,0.32,533.00,VWS V14.01,2013-07-21 16:44:00,
2013-07-21 12:49:00,82.3,77.7,30.02,SSW,205,7.0,10.0,86,0.00,,---,0.32,1171.00,VWS V14.01,2013-07-21 16:49:00,
2013-07-21 12:54:00,82.7,77.0,30.02,SSW,213,4.0,12.0,83,0.00,,---,0.32,1171.00,VWS V14.01,2013-07-21 16:54:00,
2013-07-21 13:00:00,82.9,77.6,30.02,SSW,213,6.0,10.0,84,0.00,,---,0.32,461.00,VWS V14.01,2013-07-21 17:00:00,
2013-07-21 13:05:00,83.0,76.9,30.01,SW,219,6.0,7.0,82,0.00,,---,0.32,413.00,VWS V14.01,2013-07-21 17:05:00,
2013-07-21 13:10:00,83.1,77.0,30.01,SW,236,4.0,8.0,82,0.00,,---,0.32,984.00,VWS V14.01,2013-07-21 17:10:00,
2013-07-21 13:15:00,83.3,77.2,30.01,SW,224,8.0,10.0,82,0.00,,---,0.32,1076.00,VWS V14.01,2013-07-21 17:15:00,
2013-07-21 13:20:00,83.6,77.2,30.01,SW,230,4.0,8.0,81,0.00,,---,0.32,1121.00,VWS V14.01,2013-07-21 17:20:00,
2013-07-21 13:25:00,83.9,77.4,30.01,SSW,204,0.0,7.0,81,0.00,,---,0.32,364.00,VWS V14.01,2013-07-21 17:25:00,
2013-07-21 13:30:00,84.0,76.8,30.01,SW,228,0.0,9.0,79,0.00,,---,0.32,362.00,VWS V14.01,2013-07-21 17:30:00,
2013-07-21 13:35:00,83.8,77.0,30.01,SW,236,5.0,9.0,80,0.00,,---,0.32,592.00,VWS V14.01,2013-07-21 17:35:00,
2013-07-21 13:40:00,83.6,77.2,30.00,SSW,213,5.0,5.0,81,0.00,,---,0.32,473.00,VWS V14.01,2013-07-21 17:40:00,
2013-07-21 13:45:00,83.8,77.7,30.00,WSW,252,5.0,10.0,82,0.00,,---,0.32,450.00,VWS V14.01,2013-07-21 17:45:00,
2013-07-21 13:50:00,83.6,76.4,30.00,WSW,239,6.0,12.0,79,0.00,,---,0.32,420.00,VWS V14.01,2013-07-21 17:50:00,
2013-07-21 13:55:00,83.6,76.8,30.00,SW,223,5.0,12.0,80,0.00,,---,0.32,902.00,VWS V14.01,2013-07-21 17:55:00,
2013-07-21 14:00:00,83.8,77.3,29.99,WSW,242,6.0,8.0,81,0.00,,---,0.32,877.00,VWS V14.01,2013-07-21 18:00:00,
2013-07-21 14:06:00,84.3,77.8,29.99,SSW,209,0.0,3.0,81,0.00,,---,0.32,1195.00,VWS V14.01,2013-07-21 18:06:00,
2013-07-21 14:08:00,84.6,77.4,29.99,SW,234,4.0,9.0,79,0.00,,---,0.32,360.00,VWS V14.01,2013-07-21 18:08:00,
2013-07-21 14:13:00,84.7,77.1,29.98,SW,224,2.0,6.0,78,0.00,,---,0.32,1127.00,VWS V14.01,2013-07-21 18:13:00,
2013-07-21 14:18:00,84.9,77.3,29.98,SW,234,7.0,8.0,78,0.00,,---,0.32,450.00,VWS V14.01,2013-07-21 18:18:00,
2013-07-21 14:24:00,85.2,77.9,29.97,SSW,213,6.0,10.0,79,0.00,,---,0.32,997.00,VWS V14.01,2013-07-21 18:24:00,
2013-07-21 14:29:00,85.4,78.2,29.97,SW,224,3.0,7.0,79,0.00,,---,0.32,947.00,VWS V14.01,2013-07-21 18:29:00,
2013-07-21 14:34:00,85.9,78.2,29.97,SW,229,5.0,8.0,78,0.00,,---,0.32,958.00,VWS V14.01,2013-07-21 18:34:00,
2013-07-21 14:39:00,86.1,78.1,29.97,SW,215,2.0,8.0,77,0.00,,---,0.32,320.00,VWS V14.01,2013-07-21 18:39:00,
2013-07-21 14:44:00,86.2,78.2,29.97,SSW,212,4.0,7.0,77,0.00,,---,0.32,1025.00,VWS V14.01,2013-07-21 18:44:00,
2013-07-21 14:49:00,86.4,77.9,29.97,SSW,207,6.0,12.0,76,0.00,,---,0.32,1002.00,VWS V14.01,2013-07-21 18:49:00,
2013-07-21 14:54:00,86.6,78.5,29.96,SW,219,5.0,7.0,77,0.00,,---,0.32,1013.00,VWS V14.01,2013-07-21 18:54:00,
2013-07-21 14:59:00,86.8,77.9,29.96,SSW,210,1.0,9.0,75,0.00,,---,0.32,960.00,VWS V14.01,2013-07-21 18:59:00,
2013-07-21 15:04:00,87.0,77.7,29.96,South,187,0.0,3.0,74,0.00,,---,0.32,995.00,VWS V14.01,2013-07-21 19:04:00,
2013-07-21 15:09:00,87.3,78.8,29.96,SSW,207,4.0,9.0,76,0.00,,---,0.32,1005.00,VWS V14.01,2013-07-21 19:09:00,
2013-07-21 15:14:00,87.6,78.3,29.96,SSW,211,0.0,6.0,74,0.00,,---,0.32,383.00,VWS V14.01,2013-07-21 19:14:00,
2013-07-21 15:20:00,87.8,79.7,29.96,SW,217,0.0,5.0,77,0.00,,---,0.32,1042.00,VWS V14.01,2013-07-21 19:20:00,
2013-07-21 15:25:00,87.8,77.2,29.96,SW,232,0.0,7.0,71,0.00,,---,0.32,302.00,VWS V14.01,2013-07-21 19:25:00,
2013-07-21 15:30:00,87.8,78.9,29.95,SW,232,0.0,1.0,75,0.00,,---,0.32,387.00,VWS V14.01,2013-07-21 19:30:00,
2013-07-21 15:35:00,87.8,78.1,29.95,SSW,212,3.0,8.0,73,0.00,,---,0.32,573.00,VWS V14.01,2013-07-21 19:35:00,
2013-07-21 15:40:00,87.9,79.0,29.95,SW,221,2.0,9.0,75,0.00,,---,0.32,898.00,VWS V14.01,2013-07-21 19:40:00,
2013-07-21 15:45:00,88.2,78.9,29.94,SSW,194,0.0,5.0,74,0.00,,---,0.32,891.00,VWS V14.01,2013-07-21 19:45:00,
2013-07-21 15:50:00,88.3,77.7,29.95,WSW,242,0.0,9.0,71,0.00,,---,0.32,840.00,VWS V14.01,2013-07-21 19:50:00,
2013-07-21 15:55:00,88.4,77.8,29.94,SW,217,0.0,7.0,71,0.00,,---,0.32,380.00,VWS V14.01,2013-07-21 19:55:00,
2013-07-21 16:00:00,88.4,78.2,29.94,SW,225,5.0,8.0,72,0.00,,---,0.32,951.00,VWS V14.01,2013-07-21 20:00:00,
2013-07-21 16:05:00,88.5,78.3,29.94,SSW,200,0.0,6.0,72,0.00,,---,0.32,835.00,VWS V14.01,2013-07-21 20:05:00,
2013-07-21 16:10:00,88.6,78.0,29.94,SW,219,6.0,6.0,71,0.00,,---,0.32,795.00,VWS V14.01,2013-07-21 20:10:00,
2013-07-21 16:15:00,88.7,78.1,29.94,WSW,246,5.0,7.0,71,0.00,,---,0.32,793.00,VWS V14.01,2013-07-21 20:15:00,
2013-07-21 16:21:00,88.7,78.5,29.94,SW,229,6.0,7.0,72,0.00,,---,0.32,754.00,VWS V14.01,2013-07-21 20:21:00,
2013-07-21 16:26:00,88.8,78.2,29.94,SSW,208,10.0,10.0,71,0.00,,---,0.32,761.00,VWS V14.01,2013-07-21 20:26:00,
2013-07-21 16:31:00,88.9,78.3,29.94,SW,215,4.0,6.0,71,0.00,,---,0.32,738.00,VWS V14.01,2013-07-21 20:31:00,
2013-07-21 16:36:00,89.0,77.9,29.94,SW,217,8.0,9.0,70,0.00,,---,0.32,758.00,VWS V14.01,2013-07-21 20:36:00,
2013-07-21 16:41:00,88.8,77.8,29.94,SW,222,5.0,6.0,70,0.00,,---,0.32,366.00,VWS V14.01,2013-07-21 20:41:00,
2013-07-21 16:46:00,88.6,78.0,29.94,SW,232,7.0,8.0,71,0.00,,---,0.32,682.00,VWS V14.01,2013-07-21 20:46:00,
2013-07-21 16:51:00,88.6,78.4,29.93,WSW,237,4.0,8.0,72,0.00,,---,0.32,775.00,VWS V14.01,2013-07-21 20:51:00,
2013-07-21 16:57:00,88.9,78.3,29.93,SSW,210,0.0,1.0,71,0.00,,---,0.32,761.00,VWS V14.01,2013-07-21 20:57:00,
2013-07-21 17:02:00,89.2,78.6,29.93,SSW,213,5.0,6.0,71,0.00,,---,0.32,700.00,VWS V14.01,2013-07-21 21:02:00,
2013-07-21 17:07:00,89.2,78.1,29.93,WSW,244,5.0,8.0,70,0.00,,---,0.32,355.00,VWS V14.01,2013-07-21 21:07:00,
2013-07-21 17:12:00,89.0,77.9,29.93,SSW,211,5.0,10.0,70,0.00,,---,0.32,636.00,VWS V14.01,2013-07-21 21:12:00,
2013-07-21 17:17:00,88.9,77.8,29.93,SSW,206,5.0,10.0,70,0.00,,---,0.32,383.00,VWS V14.01,2013-07-21 21:17:00,
2013-07-21 17:22:00,88.7,78.1,29.93,SW,217,5.0,9.0,71,0.00,,---,0.32,596.00,VWS V14.01,2013-07-21 21:22:00,
2013-07-21 17:27:00,88.6,78.4,29.93,SSW,200,3.0,7.0,72,0.00,,---,0.32,418.00,VWS V14.01,2013-07-21 21:27:00,
2013-07-21 17:33:00,88.4,77.8,29.93,SW,216,10.0,10.0,71,0.00,,---,0.32,202.00,VWS V14.01,2013-07-21 21:33:00,
2013-07-21 17:38:00,88.0,78.3,29.93,SSW,211,5.0,8.0,73,0.00,,---,0.32,478.00,VWS V14.01,2013-07-21 21:38:00,
2013-07-21 17:43:00,87.9,77.8,29.92,SW,221,4.0,7.0,72,0.00,,---,0.32,596.00,VWS V14.01,2013-07-21 21:43:00,
2013-07-21 17:48:00,88.1,77.5,29.93,WSW,238,9.0,12.0,71,0.00,,---,0.32,589.00,VWS V14.01,2013-07-21 21:48:00,
2013-07-21 17:54:00,88.0,77.8,29.93,SSW,213,10.0,15.0,72,0.00,,---,0.32,304.00,VWS V14.01,2013-07-21 21:54:00,
2013-07-21 17:59:00,87.5,78.2,29.93,SW,221,5.0,13.0,74,0.00,,---,0.32,499.00,VWS V14.01,2013-07-21 21:59:00,
2013-07-21 18:04:00,87.3,78.4,29.93,SW,219,4.0,9.0,75,0.00,,---,0.32,392.00,VWS V14.01,2013-07-21 22:04:00,
2013-07-21 18:09:00,87.1,78.6,29.93,SW,219,0.0,7.0,76,0.00,,---,0.32,211.00,VWS V14.01,2013-07-21 22:09:00,
2013-07-21 18:14:00,86.7,77.8,29.94,SW,217,9.0,10.0,75,0.00,,---,0.32,287.00,VWS V14.01,2013-07-21 22:14:00,
2013-07-21 18:19:00,86.4,77.9,29.94,SW,215,4.0,7.0,76,0.00,,---,0.32,360.00,VWS V14.01,2013-07-21 22:19:00,
2013-07-21 18:25:00,86.3,77.8,29.93,SW,229,0.0,9.0,76,0.00,,---,0.32,327.00,VWS V14.01,2013-07-21 22:25:00,
2013-07-21 18:30:00,86.2,77.8,29.94,SW,214,0.0,6.0,76,0.00,,---,0.32,359.00,VWS V14.01,2013-07-21 22:30:00,
2013-07-21 18:35:00,86.2,77.8,29.93,SSW,209,1.0,4.0,76,0.00,,---,0.32,325.00,VWS V14.01,2013-07-21 22:35:00,
2013-07-21 18:40:00,86.2,77.8,29.94,SW,234,0.0,12.0,76,0.00,,---,0.32,309.00,VWS V14.01,2013-07-21 22:40:00,
2013-07-21 18:45:00,86.1,78.1,29.94,SW,217,8.0,8.0,77,0.00,,---,0.32,288.00,VWS V14.01,2013-07-21 22:45:00,
2013-07-21 18:50:00,85.8,78.2,29.94,SSW,209,4.0,8.0,78,0.00,,---,0.32,167.00,VWS V14.01,2013-07-21 22:50:00,
2013-07-21 18:55:00,85.3,77.3,29.94,SSW,196,4.0,8.0,77,0.00,,---,0.32,188.00,VWS V14.01,2013-07-21 22:55:00,
2013-07-21 19:01:00,84.8,77.2,29.94,SW,217,5.0,8.0,78,0.00,,---,0.32,114.00,VWS V14.01,2013-07-21 23:01:00,
2013-07-21 19:06:00,84.3,77.1,29.93,SW,225,3.0,7.0,79,0.00,,---,0.32,118.00,VWS V14.01,2013-07-21 23:06:00,
2013-07-21 19:11:00,83.9,76.7,29.94,SW,234,7.0,11.0,79,0.00,,---,0.32,97.00,VWS V14.01,2013-07-21 23:11:00,
2013-07-21 19:16:00,83.5,76.7,29.94,SW,217,4.0,5.0,80,0.00,,---,0.32,95.00,VWS V14.01,2013-07-21 23:16:00,
2013-07-21 19:21:00,83.2,76.8,29.94,SW,217,0.0,6.0,81,0.00,,---,0.32,120.00,VWS V14.01,2013-07-21 23:21:00,
2013-07-21 19:26:00,82.9,76.5,29.94,SW,217,5.0,7.0,81,0.00,,---,0.32,86.00,VWS V14.01,2013-07-21 23:26:00,
2013-07-21 19:31:00,82.6,76.2,29.94,SW,223,5.0,6.0,81,0.00,,---,0.32,79.00,VWS V14.01,2013-07-21 23:31:00,
2013-07-21 19:36:00,82.4,76.0,29.94,SSW,207,2.0,4.0,81,0.00,,---,0.32,74.00,VWS V14.01,2013-07-21 23:36:00,
2013-07-21 19:42:00,82.2,76.2,29.94,SSW,213,0.0,4.0,82,0.00,,---,0.32,69.00,VWS V14.01,2013-07-21 23:42:00,
2013-07-21 19:47:00,82.0,76.0,29.95,SSW,198,0.0,0.0,82,0.00,,---,0.32,60.00,VWS V14.01,2013-07-21 23:47:00,
2013-07-21 19:52:00,81.8,75.8,29.95,SSW,198,0.0,3.0,82,0.00,,---,0.32,53.00,VWS V14.01,2013-07-21 23:52:00,
2013-07-21 19:57:00,81.6,75.9,29.95,SSW,213,5.0,7.0,83,0.00,,---,0.32,44.00,VWS V14.01,2013-07-21 23:57:00,
2013-07-21 20:02:00,81.4,75.7,29.96,SW,214,0.0,3.0,83,0.00,,---,0.32,33.00,VWS V14.01,2013-07-22 00:02:00,
2013-07-21 20:07:00,81.2,75.9,29.96,SW,217,0.0,2.0,84,0.00,,---,0.32,25.00,VWS V14.01,2013-07-22 00:07:00,
2013-07-21 20:12:00,81.1,75.8,29.96,SW,217,4.0,4.0,84,0.00,,---,0.32,16.00,VWS V14.01,2013-07-22 00:12:00,
2013-07-21 20:18:00,80.9,75.6,29.96,SW,214,0.0,0.0,84,0.00,,---,0.32,9.00,VWS V14.01,2013-07-22 00:18:00,
2013-07-21 20:23:00,80.7,75.8,29.96,SW,216,0.0,6.0,85,0.00,,---,0.32,0.00,VWS V14.01,2013-07-22 00:23:00,
2013-07-21 20:28:00,80.5,75.9,29.96,SSW,213,0.0,4.0,86,0.00,,---,0.32,0.00,VWS V14.01,2013-07-22 00:28:00,
2013-07-21 20:33:00,80.3,75.7,29.96,SSW,213,0.0,1.0,86,0.00,,---,0.32,0.00,VWS V14.01,2013-07-22 00:33:00,
2013-07-21 20:38:00,80.1,75.9,29.96,SW,217,0.0,4.0,87,0.00,,---,0.32,0.00,VWS V14.01,2013-07-22 00:38:00,
2013-07-21 20:43:00,79.9,75.7,29.96,SW,218,0.0,4.0,87,0.00,,---,0.32,0.00,VWS V14.01,2013-07-22 00:43:00,
2013-07-21 20:48:00,79.8,75.9,29.97,SW,218,0.0,0.0,88,0.00,,---,0.32,0.00,VWS V14.01,2013-07-22 00:48:00,
2013-07-21 20:53:00,79.7,75.8,29.98,SW,218,0.0,0.0,88,0.00,,---,0.32,0.00,VWS V14.01,2013-07-22 00:53:00,
2013-07-21 20:58:00,79.6,75.7,29.98,SW,218,1.0,4.0,88,0.00,,---,0.32,0.00,VWS V14.01,2013-07-22 00:58:00,
2013-07-21 21:04:00,79.4,75.9,29.98,SW,218,0.0,1.0,89,0.00,,---,0.32,0.00,VWS V14.01,2013-07-22 01:04:00,
2013-07-21 21:09:00,79.4,75.9,29.98,SW,218,3.0,5.0,89,0.00,,---,0.32,0.00,VWS V14.01,2013-07-22 01:09:00,
2013-07-21 21:14:00,79.3,76.1,29.98,SW,215,0.0,6.0,90,0.00,,---,0.32,0.00,VWS V14.01,2013-07-22 01:14:00,
2013-07-21 21:19:00,79.1,75.9,29.97,SW,217,0.0,5.0,90,0.00,,---,0.32,0.00,VWS V14.01,2013-07-22 01:19:00,
2013-07-21 21:24:00,79.1,75.9,29.97,SW,216,4.0,6.0,90,0.00,,---,0.32,0.00,VWS V14.01,2013-07-22 01:24:00,
2013-07-21 21:29:00,78.9,75.7,29.97,SW,216,0.0,1.0,90,0.00,,---,0.32,0.00,VWS V14.01,2013-07-22 01:29:00,
2013-07-21 21:34:00,78.9,75.7,29.98,SW,216,0.0,1.0,90,0.00,,---,0.32,0.00,VWS V14.01,2013-07-22 01:34:00,
2013-07-21 21:39:00,78.7,75.5,29.97,SW,216,0.0,1.0,90,0.00,,---,0.32,0.00,VWS V14.01,2013-07-22 01:39:00,
2013-07-21 21:44:00,78.6,75.4,29.97,SW,216,0.0,6.0,90,0.00,,---,0.32,0.00,VWS V14.01,2013-07-22 01:44:00,
2013-07-21 21:49:00,78.5,75.7,29.98,SW,216,0.0,3.0,91,0.00,,---,0.32,0.00,VWS V14.01,2013-07-22 01:49:00,
2013-07-21 21:54:00,78.3,75.5,29.98,SW,216,0.0,0.0,91,0.00,,---,0.32,0.00,VWS V14.01,2013-07-22 01:54:00,
2013-07-21 22:00:00,78.2,75.4,29.98,SW,216,0.0,4.0,91,0.00,,---,0.32,0.00,VWS V14.01,2013-07-22 02:00:00,
2013-07-21 22:05:00,78.1,75.3,29.98,SW,216,0.0,4.0,91,0.00,,---,0.32,0.00,VWS V14.01,2013-07-22 02:05:00,
2013-07-21 22:10:00,78.0,75.2,29.99,SW,216,0.0,0.0,91,0.00,,---,0.32,0.00,VWS V14.01,2013-07-22 02:10:00,
2013-07-21 22:15:00,77.9,75.1,29.99,SW,216,0.0,0.0,91,0.00,,---,0.32,0.00,VWS V14.01,2013-07-22 02:15:00,
2013-07-21 22:20:00,77.8,75.0,29.99,SW,216,0.0,0.0,91,0.00,,---,0.32,0.00,VWS V14.01,2013-07-22 02:20:00,
2013-07-21 22:25:00,77.7,74.9,29.99,SW,216,0.0,0.0,91,0.00,,---,0.32,0.00,VWS V14.01,2013-07-22 02:25:00,
2013-07-21 22:30:00,77.6,74.8,30.00,SW,216,0.0,0.0,91,0.00,,---,0.32,0.00,VWS V14.01,2013-07-22 02:30:00,
2013-07-21 22:35:00,77.5,74.7,30.00,SW,216,0.0,0.0,91,0.00,,---,0.32,0.00,VWS V14.01,2013-07-22 02:35:00,
2013-07-21 22:41:00,77.4,74.6,30.00,SW,216,0.0,0.0,91,0.00,,---,0.32,0.00,VWS V14.01,2013-07-22 02:41:00,
2013-07-21 22:46:00,77.4,74.6,30.00,SW,216,0.0,0.0,91,0.00,,---,0.32,0.00,VWS V14.01,2013-07-22 02:46:00,
2013-07-21 22:51:00,77.3,74.8,30.00,SW,216,0.0,0.0,92,0.00,,---,0.32,0.00,VWS V14.01,2013-07-22 02:51:00,
2013-07-21 22:56:00,77.2,74.4,30.00,SW,216,0.0,0.0,91,0.00,,---,0.32,0.00,VWS V14.01,2013-07-22 02:56:00,
2013-07-21 23:01:00,77.1,74.6,30.00,SW,216,0.0,0.0,92,0.00,,---,0.32,0.00,VWS V14.01,2013-07-22 03:01:00,
2013-07-21 23:06:00,77.0,74.5,29.99,SW,216,0.0,0.0,92,0.00,,---,0.32,0.00,VWS V14.01,2013-07-22 03:06:00,
2013-07-21 23:11:00,77.0,74.5,30.00,SW,216,0.0,0.0,92,0.00,,---,0.32,0.00,VWS V14.01,2013-07-22 03:11:00,
2013-07-21 23:17:00,76.9,74.4,30.00,SW,216,0.0,0.0,92,0.00,,---,0.32,0.00,VWS V14.01,2013-07-22 03:17:00,
2013-07-21 23:22:00,76.8,74.3,30.00,SW,216,0.0,0.0,92,0.00,,---,0.32,0.00,VWS V14.01,2013-07-22 03:22:00,
2013-07-21 23:27:00,76.7,74.2,30.00,SW,216,0.0,0.0,92,0.00,,---,0.32,0.00,VWS V14.01,2013-07-22 03:27:00,
2013-07-21 23:32:00,76.6,74.4,30.00,SW,216,0.0,0.0,93,0.00,,---,0.32,0.00,VWS V14.01,2013-07-22 03:32:00,
2013-07-21 23:37:00,76.5,74.3,30.00,SW,216,0.0,0.0,93,0.00,,---,0.32,0.00,VWS V14.01,2013-07-22 03:37:00,
2013-07-21 23:42:00,76.4,74.2,30.00,SW,216,0.0,0.0,93,0.00,,---,0.32,0.00,VWS V14.01,2013-07-22 03:42:00,
2013-07-21 23:47:00,76.4,74.2,30.00,SW,216,0.0,0.0,93,0.00,,---,0.32,0.00,VWS V14.01,2013-07-22 03:47:00,
2013-07-21 23:53:00,76.2,74.0,30.00,SW,216,0.0,0.0,93,0.00,,---,0.32,0.00,VWS V14.01,2013-07-22 03:53:00,